This is the latest recevied weather packets stored in our database for station/object EA7OC-10. If no packets are shown the sender has not sent any weather packets the latest 10 day(s).
| Time | Temp. | Humidity | Pressure | Rain* | Wind** | Luminosity | Snow |
|---|---|---|---|---|---|---|---|
| 1788024164 | 44.44° C | 25% | 1016.4 hPa | - | - | - | - |
| 1788023264 | 44.44° C | 26% | 1016.4 hPa | - | - | - | - |
| 1788022364 | 43.89° C | 25% | 1016.4 hPa | - | - | - | - |
| 1788021463 | 43.89° C | 25% | 1016.4 hPa | - | - | - | - |
| 1788020563 | 44.44° C | 25% | 1016.6 hPa | - | - | - | - |
| 1788019663 | 45° C | 26% | 1016.7 hPa | - | - | - | - |
| 1788018763 | 44.44° C | 26% | 1016.9 hPa | - | - | - | - |
| 1788017863 | 44.44° C | 26% | 1017.1 hPa | - | - | - | - |
| 1788016963 | 43.33° C | 26% | 1017.1 hPa | - | - | - | - |
| 1788016063 | 43.33° C | 26% | 1017.3 hPa | - | - | - | - |
| 1788015163 | 42.22° C | 26% | 1017.5 hPa | - | - | - | - |
| 1788014263 | 42.22° C | 26% | 1017.6 hPa | - | - | - | - |
| 1788013362 | 41.67° C | 26% | 1017.8 hPa | - | - | - | - |
| 1788012462 | 42.22° C | 26% | 1018 hPa | - | - | - | - |
| 1788011562 | 41.67° C | 27% | 1018.2 hPa | - | - | - | - |
| 1788010662 | 42.22° C | 27% | 1018.4 hPa | - | - | - | - |
| 1788009762 | 41.67° C | 27% | 1018.6 hPa | - | - | - | - |
| 1788008862 | 40.56° C | 26% | 1018.8 hPa | - | - | - | - |
| 1788007962 | 40° C | 27% | 1018.7 hPa | - | - | - | - |
| 1788007062 | 40° C | 27% | 1019 hPa | - | - | - | - |
| 1788006162 | 39.44° C | 27% | 1019.2 hPa | - | - | - | - |
| 1788005261 | 39.44° C | 27% | 1019.4 hPa | - | - | - | - |
| 1788004361 | 38.89° C | 27% | 1019.5 hPa | - | - | - | - |
| 1788003461 | 38.33° C | 28% | 1019.6 hPa | - | - | - | - |
| 1788002560 | 37.22° C | 28% | 1020.1 hPa | - | - | - | - |
* Rain since midnight (hover to see other rain measurements)
** Current wind speed in m/s (hover to see current wind gust speed)